Location: Hradec Kralove
(50.2170°N, 15.8330°E)
Time: 04:50:59
(UTC+01:00)

N. Korean satellite - Pass Details

Date: 06 December 2022
Orbit: 407 x 441 km, 97.3° (Epoch: 05 February)

Event Time Altitude Azimuth Distance (km) Brightness Sun altitude
Rises 06:11:14 0° 3° (N) 2,523 10.0 -13.5°
Reaches altitude 10° 06:13:31 10° 351° (N) 1,636 9.0 -13.1°
Maximum altitude 06:16:30 27° 293° (WNW) 938 7.4 -12.7°
Drops below altitude 10° 06:19:26 10° 234° (SW) 1,604 8.9 -12.2°
Sets 06:21:38 0° 222° (SW) 2,462 9.9 -11.9°
